Regional Weather Roundup
Issued by NWS

Home | Current Version | Previous Version | Text Only | Print | Product List | Glossary On
Versions: 1 2 3 4 5 6 7 8 9 10 11 12 13 14 15 16 17 18 19 20 21 22 23 24 25 26 27 28 29 30 31 32 33 34 35 36 37 38 39 40 41 42 43 44 45 46 47 48 49 50
000
ASHW40 PHFO 222010
RWRHI

WEATHER ROUNDUP FOR HAWAII
NATIONAL WEATHER SERVICE HONOLULU HI
1000 AM HST TUE JUL 22 2014

THIS IS AN AUTOMATED REPORT THAT HAS NOT BEEN QUALITY CONTROLLED.

NOTE..."FAIR" INDICATES FEW OR NO CLOUDS BELOW 12,000 FEET WITH NO
SIGNIFICANT WEATHER AND/OR OBSTRUCTIONS TO VISIBILITY.

* - THESE SITES REPORT LIMITED FIELDS

HIZ001>004-222100-
KAUAI-NIIHAU-

CITY           SKY/WX    TMP DP  RH WIND       PRES   REMARKS
LIHUE APT      SUNNY     83  75  77 NE7       30.04R HX  90
PORT ALLEN*      N/A     84 N/A N/A S5          N/A
POIPU*           N/A     86 N/A N/A NE6G12      N/A
PRINCEVILLE*   NOT AVBL
KOKOLE POINT*  NOT AVBL
MOLOAA DAIRY*  NOT AVBL
WAIMEA HTS*    NOT AVBL
PUU OPAE*      NOT AVBL
PUU LUA*       NOT AVBL
MAKAHA RIDGE*  NOT AVBL
$$

HIZ005>011-222100-
OAHU-

CITY           SKY/WX    TMP DP  RH WIND       PRES   REMARKS
HONOLULU       PTSUNNY   83  74  74 SE9       30.01S
KALAELOA       MOSUNNY   85  75  72 SE8       30.02S HX  93
KANEOHE MCB    CLOUDY    79  73  83 SE12      30.03R
WHEELER FIELD  FAIR      83  72  69 NW5       30.04S
BELLOWS*       NOT AVBL
KAHUKU*        NOT AVBL
WHEELER*       NOT AVBL
WAIANAE HARBOR NOT AVBL
DILLINGHAM*      N/A     93  75  55 N1G8        N/A  HX 104
KAHUKU TRN*      N/A     81  75  83 E8G16       N/A
KAWAILOA*      NOT AVBL
KII*             N/A     81  77  89 E13G18      N/A
MAKUA RANGE*     N/A     86  75  70 SW5G10      N/A  HX  95
OAHU FOREST NW NOT AVBL
SCHOFIELD BRK*   N/A     84  70  61 MISG        N/A
SCHOFIELD S*   NOT AVBL
WAIANAE VLY*   NOT AVBL
KUAOKALA*      NOT AVBL
HONOULIUULI*   NOT AVBL
MOKUOLOE IS*     N/A    N/A N/A N/A MISG        N/A
PALEHUA*       NOT AVBL
WAIAWA PHB*    NOT AVBL
$$

HIZ012>013-222100-
MOLOKAI-

CITY           SKY/WX    TMP DP  RH WIND       PRES   REMARKS
MOLOKAI AIRPT  PTSUNNY   83  76  79 VRB7      30.03R HX  91
KALAUPAPA      NOT AVBL
MAKAPULAPAI*   NOT AVBL
MOLOKAI 1*     NOT AVBL
PUU ALII*      NOT AVBL
$$

HIZ016-222100-
KAHOOLAWE-

CITY           SKY/WX    TMP DP  RH WIND       PRES   REMARKS
KAHOOLAWE*     NOT AVBL
HAKIOAWA*      NOT AVBL
HONOKANAIA*      N/A     87  73  62 E13G24    30.02R HX  94
KANELOA*         N/A     79  73  83 E20G32      N/A
KEALIALALO*    NOT AVBL
LUA MAKIKA*    NOT AVBL
$$

HIZ014>015-222100-
LANAI-

CITY           SKY/WX    TMP DP  RH WIND       PRES   REMARKS
LANAI CITY     PTSUNNY   82  69  64 SE10      30.08R
LANAI 1*       NOT AVBL
$$

HIZ017>028-222100-
MAUI-

CITY           SKY/WX    TMP DP  RH WIND       PRES   REMARKS
KAHULUI        MOSUNNY   86  72  62 NE17G28   30.00S HX  92
KAPALUA-W MAUI MOSUNNY   82  72  69 NE14      30.03R
HANA AIRPORT   LGT RAIN  81  73  78 E9        30.06S
HANA*          NOT AVBL
HALEAKALA SUMM   N/A     59  48  67 E10G24      N/A
MAALAEA BAY*   NOT AVBL
HALEAKALA*     NOT AVBL
KAUPO GAP*     NOT AVBL
KULA 1*          N/A     65  61  86 NW3         N/A
$$

HIZ023>026-222100-
BIG ISLAND OF HAWAII COAST AND LOWER SLOPES-

CITY           SKY/WX    TMP DP  RH WIND       PRES   REMARKS
KAILUA KONA    MOSUNNY   84  72  67 SW8       29.96S
HILO           CLOUDY    82  74  76 E7        30.04R
HONOKAA*       NOT AVBL
KAWAIHAE MWT*  NOT AVBL
KAWAIHAE*        N/A     82 N/A N/A W7          N/A
SOUTH POINT*   NOT AVBL
UPOLU AIRPORT* NOT AVBL
KAMUELA*       PTCLDY    77  66  69 NE15G28   30.12S
HAKALAU*         N/A     66  57  73 SE5G10      N/A
KALOKO-HONOKO* NOT AVBL
PALI 2*          N/A     79  66  65 NE12G20     N/A
KEALAKOMO*       N/A     88  70  55 E13G22      N/A  HX  92
KAUPULEHU*     NOT AVBL
KAPAPALA*        N/A     78  69  74 SE3G10      N/A
LOWER KAHUKU*  NOT AVBL
PUHE CS*       NOT AVBL
PUHO CS*       NOT AVBL
PTA KEAMUKU*     N/A     75  66  73 N14         N/A
WAIKOLOA*      NOT AVBL
$$

HIZ027>028-222100-
BIG ISLAND OF HAWAII INTERIOR AND SUMMMITS-

CITY           SKY/WX    TMP DP  RH WIND       PRES   REMARKS
BRADSHAW FIELD MOSUNNY   74  40  28 SE7       30.38F
MK VISITOR CEN NOT AVBL
MAUNA KEA*       N/A     43  37  81 S8          N/A
MAUNA LOA*       N/A     48  43  81 MISG        N/A
MAUNA LOA 1*   NOT AVBL
PTA KIPUKA*      N/A     75  55  50 W5          N/A
PTA RANGE 17*    N/A     79  45  29 E3G9        N/A
PTA WEST*        N/A    N/A N/A N/A NW7G13      N/A
NENE CABIN*    NOT AVBL
AHUMOA*        NOT AVBL
PTA PORTABLE*  NOT AVBL
PUU MALI*      NOT AVBL
$$

HIC003-222100-
NORTHWEST ISLANDS-

CITY           SKY/WX    TMP DP  RH WIND       PRES   REMARKS
MIDWAY ISLAND  MOSUNNY   84  72  65 E7        30.09R
MIDWAY NOS*    NOT AVBL
FRENCH FRIGATE NOT AVBL
$$

PHZ110>124-180-222100-
BUOY REPORTS

STATION/POSITION TIME  TEMP    WIND        PRES    WAVE   SWELL
                       AIR SEA DIR/SP/G            HT/PER HT/DIR
                 (UTC) (F)     (DEG/KT/KT) (MB)    (FT/S) (FT/D)
BUOY 51001       NOT AVBL
BUOY 51101       2000   80 80  130/  8/ 10 1016.7R   7/ 9   7/100
BUOY 51100       2000   77 78  100/ 14/ 16 1018.8S
BUOY 51003       1900   81 81   80/ 10/ 12 1015.3R   5/ 9   5
BUOY 51004       1938   76 80   80/ 17/ 21 1014.7R   7/ 8   5/110
BARBERS PT BUOY  NOT AVBL
WAIMEA BAY BUOY  2000      81                N/A     4/ 8
KAILUA BAY BUOY  2000      80                N/A     5/ 8   2/ 90
LANAI BUOY       2000      80                N/A     3/13   2/200
BARBERS PT 2     2000      80                N/A     3/ 8   2/180
PAUWELA MAUI     2000      79                N/A     6/ 8
HILO             NOT AVBL
KANEOHE BAY BUOY 2000      79                N/A     5/ 7
HANALEI KAUAI    NOT AVBL
KAHULUI HARBOR   2000   80 79   50/ 12/ 18 1016.0S
HONOLULU HARBOR  2000   83     100/  5/  8 1016.7R
KILO NALU        NOT AVBL
HILO HARBOR      2000   79      10/  9/ 12 1016.6S
MOKUOLOE         2000      81              1016.9R
NAWILIWILI       2000      80                N/A
WHOTS BUOY       NOT AVBL
BUOY 51028       NOT AVBL
$$

......................KEY........................................
  SKY/WX - SKY CONDITIONS/PRESENT WEATHER
  TMP    - TEMPERATURE IN FAHRENHEIT
  DWPT   - DEWPOINT IN FAHRENHEIT
  RH     - RELATIVE HUMIDITY IN PERCENT
  WIND   - DIRECTION AND SPEED /MPH FOR ISLANDS...KTS FOR BUOYS/
  PRES   - MEAN SEA LEVEL PRESSURE IN INCHES OF HG
  VSB    - VISIBILITY IN MILES
  HX     - HEAT INDEX
  WCI    - WIND CHILL INDEX
  VRB    - VARIABLE WIND DIRECTION
  N/A    - NOT AVAILABLE


USA.gov is the U.S. government's official web portal to all federal, state and local government web resources and services.